Weather History for Liberal, KS

Change the Weather History Date:

Monday, July 22, 2013

  Actual Average Record
Temperature  
Mean Temperature 84 °F -  
Max Temperature 100 °F 93 °F 112 °F (1981)
Min Temperature 69 °F 66 °F 56 °F (1970)
Cooling Degree Days 20    
Growing Degree Days 34 (Base 50)    
Moisture  
Dew Point 57 °F    
Average Humidity 40    
Maximum Humidity 64    
Minimum Humidity 21    
Precipitation  
Precipitation 0.00 in - - ()
Sea Level Pressure  
Sea Level Pressure 29.90 in    
Wind  
Wind Speed 13 mph (SSW)    
Max Wind Speed 25 mph    
Max Gust Speed 37 mph    
Visibility 10 miles    
Events      
Averages and records for this station are not official NWS values.
T = Trace of Precipitation, MM = Missing Value Source: NWS Daily Summary

Daily Weather History Graph

Daily Weather History Graph

Search for Another Location

Airport:

Trip Planner

Search our weather history database for the weather conditions in past years. The results will help you decide how hot, cold, wet, or windy it might be!

Date:

Astronomy

Jul. 22, 2013 Rise Set
Actual Time 6:41 AM CDT 8:58 PM CDT
Civil Twilight 6:11 AM CDT 9:28 PM CDT
Nautical Twilight 5:35 AM CDT 10:04 PM CDT
Astronomical Twilight 4:55 AM CDT 10:44 PM CDT
Moon 8:48 PM CDT (7/22) 6:38 AM CDT (7/22)
Length of Visible Light 15h 16m
Length of Day
14h 17m
Full, 100% of the Moon is Illuminated
Jul 22
Full
Jul 22
Full
Jul 29
Last Quarter
Aug 6
New
Aug 14
First Quarter

Hourly Weather History & Observations

Time (CDT) Temp. Heat Index Dew Point Humidity Pressure Visibility Wind Dir Wind Speed Gust Speed Precip Events Conditions
12:15 AM 78.8 °F - 59.0 °F 51% 29.90 in 10.0 mi SSW 12.7 mph - N/A   Clear
12:35 AM 78.8 °F - 57.2 °F 47% 29.90 in 10.0 mi SSW 12.7 mph - N/A   Clear
12:55 AM 78.8 °F - 57.2 °F 47% 29.90 in 10.0 mi SW 12.7 mph - N/A   Clear
1:15 AM 77.0 °F - 55.4 °F 47% 29.90 in 10.0 mi SW 11.5 mph - N/A   Clear
1:35 AM 77.0 °F - 55.4 °F 47% 29.90 in 10.0 mi SSW 13.8 mph - N/A   Clear
1:55 AM 77.0 °F - 55.4 °F 47% 29.90 in 10.0 mi SW 11.5 mph - N/A   Clear
2:15 AM 77.0 °F - 55.4 °F 47% 29.90 in 10.0 mi SW 12.7 mph - N/A   Clear
2:35 AM 77.0 °F - 55.4 °F 47% 29.90 in 10.0 mi SSW 13.8 mph - N/A   Clear
2:55 AM 75.2 °F - 55.4 °F 50% 29.90 in 10.0 mi SSW 12.7 mph - N/A   Clear
3:15 AM 75.2 °F - 55.4 °F 50% 29.90 in 10.0 mi SSW 12.7 mph - N/A   Clear
3:35 AM 73.4 °F - 55.4 °F 53% 29.90 in 10.0 mi SSW 11.5 mph - N/A   Clear
3:55 AM 73.4 °F - 55.4 °F 53% 29.89 in 10.0 mi SSW 12.7 mph - N/A   Clear
4:15 AM 73.4 °F - 57.2 °F 57% 29.90 in 10.0 mi SW 11.5 mph - N/A   Clear
4:35 AM 73.4 °F - 57.2 °F 57% 29.90 in 10.0 mi SSW 11.5 mph - N/A   Clear
4:55 AM 73.4 °F - 57.2 °F 57% 29.90 in 10.0 mi SSW 9.2 mph - N/A   Clear
5:15 AM 71.6 °F - 57.2 °F 60% 29.89 in 10.0 mi SSW 9.2 mph - N/A   Clear
5:35 AM 71.6 °F - 57.2 °F 60% 29.89 in 10.0 mi SW 10.4 mph - N/A   Clear
5:55 AM 71.6 °F - 57.2 °F 60% 29.90 in 10.0 mi SW 10.4 mph - N/A   Clear
6:15 AM 69.8 °F - 57.2 °F 64% 29.90 in 10.0 mi SW 8.1 mph - N/A   Clear
6:35 AM 69.8 °F - 57.2 °F 64% 29.90 in 10.0 mi SSW 8.1 mph - N/A   Clear
6:55 AM 69.8 °F - 57.2 °F 64% 29.91 in 10.0 mi SSW 5.8 mph - N/A   Clear
7:15 AM 69.8 °F - 57.2 °F 64% 29.91 in 10.0 mi SW 8.1 mph - N/A   Clear
7:35 AM 71.6 °F - 59.0 °F 64% 29.91 in 10.0 mi SSW 9.2 mph - N/A   Clear
7:55 AM 73.4 °F - 59.0 °F 61% 29.92 in 10.0 mi SSW 9.2 mph - N/A   Clear
8:15 AM 75.2 °F - 60.8 °F 61% 29.92 in 10.0 mi SSW 11.5 mph - N/A   Clear
8:35 AM 77.0 °F - 60.8 °F 57% 29.92 in 10.0 mi SW 12.7 mph - N/A   Clear
8:55 AM 78.8 °F - 60.8 °F 54% 29.93 in 10.0 mi SW 13.8 mph - N/A   Clear
9:15 AM 80.6 °F 81.5 °F 60.8 °F 51% 29.93 in 10.0 mi SW 11.5 mph 17.3 mph N/A   Clear
9:35 AM 82.4 °F 82.9 °F 60.8 °F 48% 29.92 in 10.0 mi SW 16.1 mph - N/A   Clear
9:55 AM 84.2 °F 84.4 °F 60.8 °F 45% 29.92 in 10.0 mi SW 16.1 mph - N/A   Clear
10:15 AM 86.0 °F 86.1 °F 60.8 °F 43% 29.93 in 10.0 mi SW 12.7 mph - N/A   Clear
10:35 AM 87.8 °F 87.6 °F 60.8 °F 40% 29.94 in 10.0 mi SW 10.4 mph - N/A   Clear
10:55 AM 89.6 °F 89.5 °F 60.8 °F 38% 29.94 in 10.0 mi SW 9.2 mph - N/A   Clear
11:15 AM 91.4 °F 91.4 °F 60.8 °F 36% 29.94 in 10.0 mi SW 10.4 mph - N/A   Clear
11:35 AM 93.2 °F 93.3 °F 60.8 °F 34% 29.92 in 10.0 mi SW 15.0 mph - N/A   Clear
11:55 AM 93.2 °F 93.3 °F 60.8 °F 34% 29.92 in 10.0 mi SW 16.1 mph - N/A   Clear
12:15 PM 96.8 °F 97.1 °F 60.8 °F 30% 29.92 in 10.0 mi SW 13.8 mph - N/A   Clear
12:35 PM 96.8 °F 96.2 °F 59.0 °F 28% 29.92 in 10.0 mi WSW 11.5 mph 18.4 mph N/A   Clear
12:55 PM 98.6 °F 98.5 °F 59.0 °F 27% 29.92 in 10.0 mi South 15.0 mph 21.9 mph N/A   Clear
1:15 PM 98.6 °F 97.2 °F 55.4 °F 24% 29.91 in 10.0 mi SSW 16.1 mph 23.0 mph N/A   Clear
1:35 PM 98.6 °F 97.2 °F 55.4 °F 24% 29.90 in 10.0 mi South 17.3 mph - N/A   Clear
1:55 PM 100.4 °F 99.7 °F 57.2 °F 24% 29.90 in 10.0 mi SSW 12.7 mph 24.2 mph N/A   Clear
2:15 PM 100.4 °F 99.7 °F 57.2 °F 24% 29.90 in 10.0 mi SSW 19.6 mph 24.2 mph N/A   Clear
2:35 PM 100.4 °F 98.8 °F 55.4 °F 22% 29.89 in 10.0 mi South 23.0 mph - N/A   Clear
2:55 PM 100.4 °F 99.7 °F 57.2 °F 24% 29.89 in 10.0 mi SW 20.7 mph 25.3 mph N/A   Clear
3:15 PM 100.4 °F 99.7 °F 57.2 °F 24% 29.89 in 10.0 mi South 20.7 mph 25.3 mph N/A   Clear
3:35 PM 100.4 °F 99.7 °F 57.2 °F 24% 29.88 in 10.0 mi South 18.4 mph 23.0 mph N/A   Clear
3:55 PM 100.4 °F 99.7 °F 57.2 °F 24% 29.88 in 10.0 mi South 20.7 mph 28.8 mph N/A   Clear
4:15 PM 100.4 °F 100.2 °F 59.0 °F 25% 29.87 in 10.0 mi South 21.9 mph 25.3 mph N/A   Clear
4:35 PM 100.4 °F 99.7 °F 57.2 °F 24% 29.87 in 10.0 mi South 21.9 mph 26.5 mph N/A   Clear
4:55 PM 100.4 °F 99.7 °F 57.2 °F 24% 29.87 in 10.0 mi South 21.9 mph 26.5 mph N/A   Clear
5:15 PM 100.4 °F 99.7 °F 57.2 °F 24% 29.86 in 10.0 mi South 20.7 mph 33.4 mph N/A   Clear
5:35 PM 100.4 °F 99.7 °F 57.2 °F 24% 29.85 in 10.0 mi South 24.2 mph 29.9 mph N/A   Clear
5:55 PM 100.4 °F 98.8 °F 55.4 °F 22% 29.84 in 10.0 mi South 25.3 mph 28.8 mph N/A   Clear
6:15 PM 100.4 °F 98.8 °F 55.4 °F 22% 29.84 in 10.0 mi SSW 20.7 mph 24.2 mph N/A   Clear
6:35 PM 100.4 °F 98.4 °F 53.6 °F 21% 29.85 in 10.0 mi South 18.4 mph 23.0 mph N/A   Clear
6:55 PM 96.8 °F - 51.8 °F 22% 29.86 in 10.0 mi SSW 16.1 mph - N/A   Clear
7:15 PM 96.8 °F 94.4 °F 53.6 °F 23% 29.87 in 10.0 mi South 16.1 mph 21.9 mph N/A   Clear
7:35 PM 96.8 °F 95.1 °F 55.4 °F 25% 29.88 in 10.0 mi South 10.4 mph - N/A   Clear
7:55 PM 93.2 °F 90.8 °F 53.6 °F 26% 29.92 in 10.0 mi NNE 15.0 mph 23.0 mph N/A   Partly Cloudy
8:15 PM 87.8 °F 85.7 °F 53.6 °F 31% 29.92 in 9.0 mi NNE 25.3 mph 36.8 mph N/A   Mostly Cloudy
8:35 PM 86.0 °F 84.2 °F 53.6 °F 33% 29.92 in 10.0 mi East 3.5 mph - N/A   Partly Cloudy
8:55 PM 87.8 °F 85.7 °F 53.6 °F 31% 29.90 in 10.0 mi SE 10.4 mph - N/A   Clear
9:15 PM 86.0 °F 84.2 °F 53.6 °F 33% 29.85 in 10.0 mi SSE 16.1 mph - N/A   Clear
9:35 PM 86.0 °F 84.2 °F 53.6 °F 33% 29.89 in 10.0 mi SSE 12.7 mph - N/A   Clear
9:55 PM 84.2 °F 82.8 °F 53.6 °F 35% 29.91 in 10.0 mi SE 12.7 mph - N/A   Clear
10:15 PM 82.4 °F 81.7 °F 55.4 °F 39% 29.92 in 10.0 mi SE 12.7 mph - N/A   Clear
10:35 PM 82.4 °F 81.7 °F 55.4 °F 39% 29.93 in 10.0 mi SE 15.0 mph - N/A   Clear
10:55 PM 82.4 °F 82.0 °F 57.2 °F 42% 29.93 in 10.0 mi SSE 12.7 mph - N/A   Clear
11:15 PM 84.2 °F 83.8 °F 59.0 °F 42% 29.93 in 10.0 mi SSE 12.7 mph - N/A   Clear
11:35 PM 82.4 °F 82.9 °F 60.8 °F 48% 29.93 in 10.0 mi South 15.0 mph - N/A   Clear
11:55 PM 82.4 °F 82.9 °F 60.8 °F 48% 29.94 in 10.0 mi South 13.8 mph - N/A   Clear